Location: Caltech
(34.1382°N, 118.1253°W)
Time: 13:23:30
(UTC-07:00)

Hamsat - Visible Passes

Search period start: 29 September 2016 00:00
Search period end: 09 October 2016 00:00
Orbit: 587 x 618 km, 97.6° (Epoch: 29 September)

Date Brightness Start Highest point End Pass type
(mag) Time Alt. Az. Time Alt. Az. Time Alt. Az.
29 Sep ? 04:56:25 10° NNE 05:00:34 46° E 05:04:40 10° S visible
30 Sep ? 05:08:16 10° NNE 05:12:33 66° E 05:16:47 10° S visible
01 Oct ? 05:20:12 10° N 05:24:31 87° WNW 05:28:47 10° SSW visible
02 Oct ? 05:32:13 10° N 05:36:28 61° WNW 05:40:39 10° SSW visible
03 Oct ? 04:10:36 10° ENE 04:12:25 12° E 04:14:14 10° ESE visible
03 Oct ? 05:44:19 10° N 05:48:24 43° WNW 05:52:24 10° SW visible
04 Oct ? 04:21:36 10° NE 04:24:29 17° E 04:27:19 10° SE visible
04 Oct ? 05:56:30 10° N 06:00:17 31° WNW 06:04:02 10° SW visible
05 Oct ? 04:33:02 10° NE 04:36:31 24° E 04:39:58 10° SSE visible
05 Oct ? 06:08:47 10° NNW 06:12:09 23° WNW 06:15:29 10° WSW visible
06 Oct ? 04:44:39 10° NNE 04:48:32 33° E 04:52:21 10° SSE visible
06 Oct ? 06:21:16 10° NNW 06:24:00 17° WNW 06:26:44 10° WSW visible
07 Oct ? 04:56:23 10° NNE 05:00:32 47° E 05:04:36 10° S visible
08 Oct ? 05:08:14 10° NNE 05:12:30 67° E 05:16:41 10° S visible
